Home   Weather   Warsaw   Past weeks

Flag for Poland Past Weather in Warsaw, Poland — Yesterday and Last 2 Weeks

Now
43 °F

Mostly cloudy.


Feels Like: 38 °F
Forecast: 40 / 55 °F
Wind: 8 mph from North

Location: Warsaw Okecie Airport

Current Time: Apr 28, 2017 at 6:27:28 pm

Latest Report: Apr 28, 2017 at 6:00 pm


Visibility: N/A

Pressure: 29.77 "Hg

Humidity: 93%

Dew Point: 41 °F

Location of WarsawLocation

Past Weather in Warsaw — Graph

°F

Warsaw Temperature Yesterday

Maximum temperature yesterday: 45 °F (at 4:00 pm)
Minimum temperature yesterday: 37 °F (at 4:30 am)
Average temperature yesterday: 41 °F

High & Low Weather Summary for the Past Weeks

 TemperatureHumidityPressure
High66 °F (Apr 25, 2:30 pm)100% (Apr 14, 1:00 am)30.45 "Hg (Apr 14, 1:00 am)
Low27 °F (Apr 17, 3:00 am)29% (Apr 20, 6:00 pm)29.59 "Hg (Apr 25, 2:30 pm)
Average42 °F69%29.96 "Hg
* Reported Apr 13 5:00 pm — Apr 28 5:30 pm, Warsaw, Weather by CustomWeather, © 2017

Note: Actual official high and low records may vary slightly from our data, if they occured in-between our weather recording intervals... More about our weather records

Advertising

Warsaw Weather History for the Previous 24 Hours

Scroll right to see more
 ConditionsComfort  
Time TempWeatherWind HumidityBarometerVisibility
5:30 pm
Fri, Apr 28
43 °FLight rain. Mostly cloudy.7 mph93%29.77 "HgN/A
5:00 pm43 °FLight rain. Cloudy.9 mph93%29.77 "HgN/A
4:30 pm45 °FLight rain. Partly sunny.8 mph87%29.77 "HgN/A
4:00 pm45 °FLight rain. Mostly cloudy.7 mph87%29.77 "HgN/A
3:30 pm43 °FLight rain. Mostly cloudy.7 mph93%29.77 "HgN/A
3:00 pm43 °FRain. Partly sunny.8 mph93%29.77 "HgN/A
2:30 pm43 °FLight rain. Partly sunny.8 mph93%29.80 "HgN/A
2:00 pm43 °FLight rain. Partly sunny.9 mph93%29.80 "HgN/A
1:30 pm43 °FPartly sunny.9 mph93%29.80 "HgN/A
1:00 pm43 °FLight rain. Partly sunny.9 mph93%29.80 "Hg5 mi
12:30 pm43 °FLight rain. Fog.10 mph93%29.80 "Hg2 mi
12:00 pm43 °FLight rain. Partly sunny.12 mph87%29.80 "HgN/A
11:30 am41 °FLight rain. Partly sunny.14 mph93%29.80 "HgN/A
11:00 am41 °FLight rain. Mostly cloudy.13 mph93%29.80 "HgN/A
10:30 am41 °FRain. Partly sunny.13 mph93%29.83 "Hg5 mi
9:30 am41 °FRain. Mostly cloudy.14 mph93%29.83 "Hg5 mi
9:00 am41 °FRain. Partly sunny.14 mph93%29.86 "Hg5 mi
8:30 am41 °FLight rain. Mostly cloudy.15 mph87%29.86 "HgN/A
8:00 am41 °FRain. Mostly cloudy.15 mph93%29.86 "Hg5 mi
7:30 am41 °FRain. More clouds than sun.12 mph93%29.89 "Hg4 mi
7:00 am41 °FLight rain. Partly sunny.10 mph93%29.92 "HgN/A
6:30 am41 °FLight rain. Passing clouds.12 mph93%29.89 "HgN/A
6:00 am41 °FLight rain. Partly sunny.10 mph93%29.92 "HgN/A
5:30 am41 °FLight rain. Overcast.9 mph87%29.92 "HgN/A
5:00 am41 °FLight rain. Passing clouds.8 mph87%29.95 "HgN/A
4:30 am43 °FPassing clouds.8 mph81%29.95 "HgN/A
4:00 am43 °FPassing clouds.7 mph81%29.98 "HgN/A
3:30 am43 °FPassing clouds.7 mph81%29.98 "HgN/A
3:00 am43 °FClear.8 mph81%29.98 "Hg10 mi
2:30 am43 °FClear.7 mph81%29.98 "Hg10 mi
2:00 am43 °FClear.6 mph81%29.98 "Hg10 mi
1:30 am43 °FClear.5 mph81%30.01 "Hg10 mi
1:00 am43 °FClear.3 mph81%30.01 "Hg10 mi
12:30 am43 °FClear.3 mph81%30.01 "Hg10 mi
12:00 am43 °FClear.2 mph87%30.01 "Hg10 mi
11:30 pm
Thu, Apr 27
41 °FClear.1 mph93%30.01 "Hg10 mi
11:00 pm41 °FClear.1 mph87%30.01 "Hg10 mi
10:30 pm41 °FClear.5 mph93%30.01 "Hg10 mi
10:00 pm39 °FClear.No wind100%30.01 "Hg10 mi
9:30 pm41 °FPassing clouds.5 mph93%30.01 "HgN/A
9:00 pm43 °FPassing clouds.5 mph87%30.01 "HgN/A
8:30 pm43 °FClear.3 mph87%30.01 "Hg10 mi
8:00 pm41 °FClear.5 mph93%30.01 "Hg10 mi
7:30 pm43 °FSunny.3 mph81%29.98 "Hg10 mi
7:00 pm45 °FPassing clouds.2 mph81%30.01 "HgN/A
6:30 pm45 °FPassing clouds.2 mph76%30.01 "HgN/A
6:00 pm45 °FScattered clouds.2 mph76%30.01 "HgN/A
Weather by CustomWeather, © 2017

See weather overviewHow to use our weather pages